Location: Nians�bougou
(13.2321°N, 4.9818°W)
Time: 12:04:27
(UTC+00:00)

PSLV R/B - Pass Details

Date: 18 February 2020
Orbit: 505 x 578 km, 97.8° (Epoch: 05 April)

Event Time Altitude Azimuth Distance (km) Brightness Sun altitude
Rises 05:24:42 0° 5° (N) 2,634 7.3 -19.3°
Reaches altitude 10° 05:26:48 10° 1° (N) 1,757 6.3 -18.8°
Maximum altitude 05:30:31 57° 282° (WNW) 630 3.7 -17.9°
Drops below altitude 10° 05:34:19 10° 203° (SSW) 1,798 6.3 -17.0°
Sets 05:36:29 0° 199° (SSW) 2,702 7.2 -16.4°
